Time,TemperatureF,DewpointF,PressureIn,WindDirection,WindDirectionDegrees,WindSpeedMPH,WindSpeedGustMPH,Humidity,HourlyPrecipIn,Conditions,Clouds,dailyrainin,SoftwareType,DateUTC
2013-05-02 00:01:00,51.8,19.8,30.14,NNE,24,5.4,9.6,28,0.00,,OVC080,0.00,VWS V14.01,2013-05-02 05:01:00,
2013-05-02 00:07:00,51.4,20.3,30.14,North,10,8.7,9.2,29,0.00,,OVC080,0.00,VWS V14.01,2013-05-02 05:07:00,
2013-05-02 00:12:00,51.1,20.0,30.14,NNE,12,10.5,17.4,29,0.00,,OVC080,0.00,VWS V14.01,2013-05-02 05:12:00,
2013-05-02 00:17:00,50.9,19.8,30.14,NNE,14,8.1,10.1,29,0.00,,OVC080,0.00,VWS V14.01,2013-05-02 05:17:00,
2013-05-02 00:22:00,50.5,19.5,30.14,NE,37,9.2,13.2,29,0.00,,OVC080,0.00,VWS V14.01,2013-05-02 05:22:00,
2013-05-02 00:28:00,50.4,19.3,30.14,NNE,21,8.1,10.1,29,0.00,,OVC080,0.00,VWS V14.01,2013-05-02 05:28:00,
2013-05-02 00:33:00,50.0,19.0,30.14,NE,54,5.4,12.3,29,0.00,,OVC080,0.00,VWS V14.01,2013-05-02 05:33:00,
2013-05-02 00:38:00,49.8,18.9,30.14,NNE,27,8.7,11.0,29,0.00,,OVC080,0.00,VWS V14.01,2013-05-02 05:38:00,
2013-05-02 00:44:00,49.6,19.5,30.14,NNE,22,8.7,9.6,30,0.00,,OVC080,0.00,VWS V14.01,2013-05-02 05:44:00,
2013-05-02 00:49:00,49.5,19.3,30.14,NE,42,10.1,10.1,30,0.00,,OVC080,0.00,VWS V14.01,2013-05-02 05:49:00,
2013-05-02 00:54:00,49.1,18.2,30.14,North,2,8.3,15.4,29,0.00,,OVC080,0.00,VWS V14.01,2013-05-02 05:54:00,
2013-05-02 00:59:00,48.9,18.9,30.14,NNE,26,11.9,17.0,30,0.00,,OVC080,0.00,VWS V14.01,2013-05-02 05:59:00,
2013-05-02 01:04:00,48.7,18.7,30.14,NNE,23,5.8,7.6,30,0.00,,BKN100,0.00,VWS V14.01,2013-05-02 06:04:00,
2013-05-02 01:10:00,48.6,19.3,30.14,NNE,13,8.7,8.7,31,0.00,,BKN100,0.00,VWS V14.01,2013-05-02 06:10:00,
2013-05-02 01:15:00,48.4,19.9,30.11,NNE,27,4.9,10.5,32,0.00,,BKN100,0.00,VWS V14.01,2013-05-02 06:15:00,
2013-05-02 01:20:00,48.0,20.3,30.11,NNE,24,4.0,6.3,33,0.00,,BKN100,0.00,VWS V14.01,2013-05-02 06:20:00,
2013-05-02 01:25:00,47.8,21.5,30.11,NE,34,6.3,7.6,35,0.00,,BKN100,0.00,VWS V14.01,2013-05-02 06:25:00,
2013-05-02 01:31:00,47.7,21.4,30.11,NE,41,7.6,8.3,35,0.00,,BKN100,0.00,VWS V14.01,2013-05-02 06:31:00,
2013-05-02 01:37:00,47.5,22.5,30.11,NE,37,2.7,10.5,37,0.00,,BKN100,0.00,VWS V14.01,2013-05-02 06:37:00,
2013-05-02 01:42:00,47.3,22.4,30.11,NNE,18,11.0,14.1,37,0.00,,BKN100,0.00,VWS V14.01,2013-05-02 06:42:00,
2013-05-02 01:48:00,47.1,22.2,30.14,North,3,12.3,13.2,37,0.00,,BKN100,0.00,VWS V14.01,2013-05-02 06:48:00,
2013-05-02 01:54:00,46.9,22.7,30.14,NNE,12,9.6,12.3,38,0.00,,BKN100,0.00,VWS V14.01,2013-05-02 06:54:00,
2013-05-02 01:59:00,46.6,22.4,30.14,North,1,8.1,10.1,38,0.00,,BKN100,0.00,VWS V14.01,2013-05-02 06:59:00,
2013-05-02 02:04:00,46.4,22.2,30.14,NNE,16,5.8,13.2,38,0.00,,CLR,0.00,VWS V14.01,2013-05-02 07:04:00,
2013-05-02 02:10:00,46.2,22.6,30.14,North,357,8.3,9.2,39,0.00,,CLR,0.00,VWS V14.01,2013-05-02 07:10:00,
2013-05-02 02:16:00,46.2,22.6,30.14,NNE,25,5.8,8.7,39,0.00,,CLR,0.00,VWS V14.01,2013-05-02 07:16:00,
2013-05-02 02:21:00,46.0,22.5,30.14,NE,46,8.7,10.5,39,0.00,,CLR,0.00,VWS V14.01,2013-05-02 07:21:00,
2013-05-02 02:35:00,45.5,20.8,30.14,NNE,16,15.4,15.4,37,0.00,,CLR,0.00,VWS V14.01,2013-05-02 07:35:00,
2013-05-02 02:41:00,45.3,20.0,30.14,North,6,11.0,12.8,36,0.00,,CLR,0.00,VWS V14.01,2013-05-02 07:41:00,
2013-05-02 02:46:00,45.1,19.8,30.14,North,5,8.3,11.4,36,0.00,,CLR,0.00,VWS V14.01,2013-05-02 07:46:00,
2013-05-02 02:51:00,44.8,19.5,30.14,North,9,7.6,13.2,36,0.00,,CLR,0.00,VWS V14.01,2013-05-02 07:51:00,
2013-05-02 02:57:00,44.6,20.0,30.14,NNE,17,8.1,10.5,37,0.00,,CLR,0.00,VWS V14.01,2013-05-02 07:57:00,
2013-05-02 03:02:00,44.2,20.3,30.14,NNE,20,8.1,10.5,38,0.00,,CLR,0.00,VWS V14.01,2013-05-02 08:02:00,
2013-05-02 03:07:00,43.9,19.9,30.14,North,357,8.7,11.0,38,0.00,,CLR,0.00,VWS V14.01,2013-05-02 08:07:00,
2013-05-02 03:13:00,43.5,19.6,30.14,NNE,13,7.6,8.7,38,0.00,,CLR,0.00,VWS V14.01,2013-05-02 08:13:00,
2013-05-02 03:18:00,43.3,19.5,30.14,North,3,10.1,16.8,38,0.00,,CLR,0.00,VWS V14.01,2013-05-02 08:18:00,
2013-05-02 03:23:00,43.0,19.1,30.14,NNE,17,15.9,15.9,38,0.00,,CLR,0.00,VWS V14.01,2013-05-02 08:23:00,
2013-05-02 03:29:00,42.6,18.8,30.14,North,6,6.3,11.4,38,0.00,,CLR,0.00,VWS V14.01,2013-05-02 08:29:00,
2013-05-02 03:34:00,42.4,19.2,30.14,North,3,11.0,13.6,39,0.00,,CLR,0.00,VWS V14.01,2013-05-02 08:34:00,
2013-05-02 03:40:00,42.4,19.2,30.14,North,11,6.3,8.7,39,0.00,,CLR,0.00,VWS V14.01,2013-05-02 08:40:00,
2013-05-02 03:45:00,42.3,19.1,30.14,NNE,21,10.1,15.0,39,0.00,,CLR,0.00,VWS V14.01,2013-05-02 08:45:00,
2013-05-02 03:51:00,42.1,18.9,30.14,NNE,15,5.4,12.3,39,0.00,,CLR,0.00,VWS V14.01,2013-05-02 08:51:00,
2013-05-02 03:56:00,41.9,18.8,30.14,NE,43,7.6,15.4,39,0.00,,CLR,0.00,VWS V14.01,2013-05-02 08:56:00,
2013-05-02 04:02:00,41.7,18.6,30.14,North,2,5.8,12.8,39,0.00,,FEW080,0.00,VWS V14.01,2013-05-02 09:02:00,
2013-05-02 04:07:00,41.5,18.4,30.14,North,1,9.2,11.0,39,0.00,,FEW080,0.00,VWS V14.01,2013-05-02 09:07:00,
2013-05-02 04:12:00,41.4,18.3,30.14,North,0,10.1,13.2,39,0.00,,FEW080,0.00,VWS V14.01,2013-05-02 09:12:00,
2013-05-02 04:17:00,41.2,18.1,30.14,North,3,7.6,11.0,39,0.00,,FEW080,0.00,VWS V14.01,2013-05-02 09:17:00,
2013-05-02 04:22:00,41.0,18.0,30.14,North,4,8.3,8.7,39,0.00,,FEW080,0.00,VWS V14.01,2013-05-02 09:22:00,
2013-05-02 04:28:00,40.6,18.2,30.14,NNE,13,10.1,17.0,40,0.00,,FEW080,0.00,VWS V14.01,2013-05-02 09:28:00,
2013-05-02 04:33:00,40.5,18.1,30.14,NNE,18,13.2,13.2,40,0.00,,FEW080,0.00,VWS V14.01,2013-05-02 09:33:00,
2013-05-02 04:38:00,40.3,17.9,30.14,NNE,22,13.2,13.2,40,0.00,,FEW080,0.00,VWS V14.01,2013-05-02 09:38:00,
2013-05-02 04:44:00,40.3,17.9,30.14,NNE,13,17.0,17.4,40,0.00,,FEW080,0.00,VWS V14.01,2013-05-02 09:44:00,
2013-05-02 04:50:00,40.1,17.7,30.14,North,10,6.7,8.7,40,0.00,,FEW080,0.00,VWS V14.01,2013-05-02 09:50:00,
2013-05-02 04:55:00,40.1,17.7,30.14,NNE,21,12.8,12.8,40,0.00,,FEW080,0.00,VWS V14.01,2013-05-02 09:55:00,
2013-05-02 05:01:00,39.9,17.6,30.14,North,7,15.9,15.9,40,0.00,,FEW070,0.00,VWS V14.01,2013-05-02 10:01:00,
2013-05-02 05:07:00,39.9,17.6,30.14,NNE,14,13.2,16.8,40,0.00,,FEW070,0.00,VWS V14.01,2013-05-02 10:07:00,
2013-05-02 05:12:00,39.9,17.6,30.14,NNE,13,8.7,11.0,40,0.00,,FEW070,0.00,VWS V14.01,2013-05-02 10:12:00,
2013-05-02 05:17:00,39.7,17.4,30.14,NNE,23,11.0,12.8,40,0.00,,FEW070,0.00,VWS V14.01,2013-05-02 10:17:00,
2013-05-02 05:22:00,39.7,17.4,30.14,NE,35,10.5,13.2,40,0.00,,FEW070,0.00,VWS V14.01,2013-05-02 10:22:00,
2013-05-02 05:27:00,39.6,17.2,30.14,North,7,12.3,15.0,40,0.00,,FEW070,0.00,VWS V14.01,2013-05-02 10:27:00,
2013-05-02 05:33:00,39.4,17.7,30.14,NNE,14,12.3,12.3,41,0.00,,FEW070,0.00,VWS V14.01,2013-05-02 10:33:00,
2013-05-02 05:38:00,39.4,17.7,30.14,North,6,11.0,11.0,41,0.00,,FEW070,0.00,VWS V14.01,2013-05-02 10:38:00,
2013-05-02 05:43:00,39.2,17.5,30.14,NNE,15,12.8,12.8,41,0.00,,FEW070,0.00,VWS V14.01,2013-05-02 10:43:00,
2013-05-02 05:48:00,39.2,17.5,30.14,NNE,23,8.1,15.9,41,0.00,,FEW070,0.00,VWS V14.01,2013-05-02 10:48:00,
2013-05-02 05:54:00,39.2,17.5,30.14,North,1,8.7,10.1,41,0.00,,FEW070,0.00,VWS V14.01,2013-05-02 10:54:00,
2013-05-02 05:59:00,39.2,18.0,30.14,NNE,24,5.4,15.0,42,0.00,,FEW070,0.00,VWS V14.01,2013-05-02 10:59:00,
2013-05-02 06:05:00,39.2,18.0,30.14,NNW,346,12.8,12.8,42,0.00,,FEW070,0.00,VWS V14.01,2013-05-02 11:05:00,
2013-05-02 06:11:00,39.2,18.0,30.14,NNE,15,14.1,14.5,42,0.00,,FEW070,0.00,VWS V14.01,2013-05-02 11:11:00,
2013-05-02 06:16:00,39.2,18.0,30.14,NNE,14,8.1,10.1,42,0.00,,FEW070,0.00,VWS V14.01,2013-05-02 11:16:00,
2013-05-02 06:22:00,39.2,18.0,30.14,NNE,20,6.3,12.8,42,0.00,,FEW070,0.00,VWS V14.01,2013-05-02 11:22:00,
2013-05-02 06:27:00,39.2,18.0,30.14,North,8,13.6,16.8,42,0.00,,FEW070,0.00,VWS V14.01,2013-05-02 11:27:00,
2013-05-02 06:33:00,39.2,18.0,30.14,NNE,13,12.3,12.8,42,0.00,,FEW070,0.00,VWS V14.01,2013-05-02 11:33:00,
2013-05-02 06:39:00,39.4,18.2,30.14,NNE,13,10.1,14.5,42,0.00,,FEW070,0.00,VWS V14.01,2013-05-02 11:39:00,
2013-05-02 06:44:00,39.4,18.2,30.14,NNE,20,11.0,14.5,42,0.00,,FEW070,0.00,VWS V14.01,2013-05-02 11:44:00,
2013-05-02 06:49:00,39.6,18.4,30.17,NNE,18,15.4,15.4,42,0.00,,FEW070,0.00,VWS V14.01,2013-05-02 11:49:00,
2013-05-02 06:55:00,39.7,18.5,30.17,NNE,25,10.5,10.5,42,0.00,,FEW070,0.00,VWS V14.01,2013-05-02 11:55:00,
2013-05-02 07:00:00,39.9,18.1,30.17,NNE,12,6.3,8.7,41,0.00,,FEW070,0.00,VWS V14.01,2013-05-02 12:00:00,
2013-05-02 07:06:00,39.9,18.1,30.17,North,7,15.9,15.9,41,0.00,,FEW070,0.00,VWS V14.01,2013-05-02 12:06:00,
2013-05-02 07:11:00,40.1,18.3,30.17,North,353,15.0,15.0,41,0.00,,FEW070,0.00,VWS V14.01,2013-05-02 12:11:00,
2013-05-02 07:16:00,40.3,18.5,30.17,North,10,11.0,12.8,41,0.00,,FEW070,0.00,VWS V14.01,2013-05-02 12:16:00,
2013-05-02 07:21:00,40.3,17.9,30.17,NNW,348,13.2,15.4,40,0.00,,FEW070,0.00,VWS V14.01,2013-05-02 12:21:00,
2013-05-02 07:26:00,40.5,18.1,30.17,NNE,23,13.2,15.0,40,0.00,,FEW070,0.00,VWS V14.01,2013-05-02 12:26:00,
2013-05-02 07:32:00,40.6,18.2,30.17,NE,42,6.3,14.5,40,0.00,,FEW070,0.00,VWS V14.01,2013-05-02 12:32:00,
2013-05-02 07:37:00,41.0,18.0,30.17,NNE,19,15.0,15.0,39,0.00,,FEW070,0.00,VWS V14.01,2013-05-02 12:37:00,
2013-05-02 07:42:00,41.2,18.1,30.17,NNE,18,5.8,11.0,39,0.00,,FEW070,0.00,VWS V14.01,2013-05-02 12:42:00,
2013-05-02 07:47:00,41.5,18.4,30.14,NNE,27,7.2,13.2,39,0.00,,FEW070,0.00,VWS V14.01,2013-05-02 12:47:00,
2013-05-02 07:52:00,41.7,18.6,30.14,ENE,58,8.3,12.8,39,0.00,,FEW070,0.00,VWS V14.01,2013-05-02 12:52:00,
2013-05-02 07:58:00,42.1,18.3,30.14,NNE,31,14.5,15.0,38,0.00,,FEW070,0.00,VWS V14.01,2013-05-02 12:58:00,
2013-05-02 08:03:00,42.1,18.3,30.17,NNE,17,8.3,10.5,38,0.00,,FEW070,0.00,VWS V14.01,2013-05-02 13:03:00,
2013-05-02 08:09:00,42.3,18.5,30.17,ENE,58,5.4,10.1,38,0.00,,FEW070,0.00,VWS V14.01,2013-05-02 13:09:00,
2013-05-02 08:14:00,42.6,18.8,30.17,NNE,33,8.7,11.0,38,0.00,,FEW070,0.00,VWS V14.01,2013-05-02 13:14:00,
2013-05-02 08:19:00,42.8,19.0,30.17,North,2,10.1,15.0,38,0.00,,FEW070,0.00,VWS V14.01,2013-05-02 13:19:00,
2013-05-02 08:24:00,43.2,19.3,30.17,NNE,15,7.6,8.3,38,0.00,,FEW070,0.00,VWS V14.01,2013-05-02 13:24:00,
2013-05-02 08:30:00,43.5,18.4,30.17,North,357,14.1,15.0,36,0.00,,FEW070,0.00,VWS V14.01,2013-05-02 13:30:00,
2013-05-02 08:35:00,43.5,19.0,30.17,North,11,8.1,8.3,37,0.00,,FEW070,0.00,VWS V14.01,2013-05-02 13:35:00,
2013-05-02 08:40:00,43.9,19.3,30.17,NNE,33,8.1,10.1,37,0.00,,FEW070,0.00,VWS V14.01,2013-05-02 13:40:00,
2013-05-02 08:45:00,44.4,19.8,30.17,NNE,12,8.1,10.1,37,0.00,,FEW070,0.00,VWS V14.01,2013-05-02 13:45:00,
2013-05-02 08:50:00,45.0,19.0,30.17,NNE,16,10.1,10.1,35,0.00,,FEW070,0.00,VWS V14.01,2013-05-02 13:50:00,
2013-05-02 08:55:00,45.0,19.6,30.17,NNE,22,3.6,5.8,36,0.00,,FEW070,0.00,VWS V14.01,2013-05-02 13:55:00,
2013-05-02 09:01:00,45.3,19.3,30.17,NNE,24,10.1,10.1,35,0.00,,SCT020,0.00,VWS V14.01,2013-05-02 14:01:00,
2013-05-02 09:07:00,45.9,19.8,30.17,North,3,10.5,10.5,35,0.00,,SCT020,0.00,VWS V14.01,2013-05-02 14:07:00,
2013-05-02 09:12:00,45.7,19.6,30.17,NE,45,3.6,12.8,35,0.00,,SCT020,0.00,VWS V14.01,2013-05-02 14:12:00,
2013-05-02 09:17:00,45.9,19.8,30.17,North,357,8.7,11.0,35,0.00,,SCT020,0.00,VWS V14.01,2013-05-02 14:17:00,
2013-05-02 09:23:00,46.0,19.9,30.17,North,353,10.5,10.5,35,0.00,,SCT020,0.00,VWS V14.01,2013-05-02 14:23:00,
2013-05-02 09:28:00,46.4,20.2,30.17,NNE,19,3.6,8.7,35,0.00,,SCT020,0.00,VWS V14.01,2013-05-02 14:28:00,
2013-05-02 09:34:00,47.1,19.5,30.17,NNE,14,10.5,13.6,33,0.00,,SCT020,0.00,VWS V14.01,2013-05-02 14:34:00,
2013-05-02 09:39:00,47.3,19.7,30.17,North,2,12.3,12.3,33,0.00,,SCT020,0.00,VWS V14.01,2013-05-02 14:39:00,
2013-05-02 09:44:00,47.5,20.5,30.17,North,11,13.2,13.2,34,0.00,,SCT020,0.00,VWS V14.01,2013-05-02 14:44:00,
2013-05-02 09:49:00,47.1,18.8,30.17,North,5,8.7,10.5,32,0.00,,SCT020,0.00,VWS V14.01,2013-05-02 14:49:00,
2013-05-02 09:54:00,46.9,19.4,30.17,North,1,9.2,10.1,33,0.00,,SCT020,0.00,VWS V14.01,2013-05-02 14:54:00,
2013-05-02 09:59:00,46.6,19.0,30.20,NNE,12,10.1,11.0,33,0.00,,SCT020,0.00,VWS V14.01,2013-05-02 14:59:00,
2013-05-02 10:04:00,46.4,18.9,30.20,North,6,8.7,11.0,33,0.00,,BKN100,0.00,VWS V14.01,2013-05-02 15:04:00,
2013-05-02 10:09:00,46.4,19.6,30.20,NNE,23,8.1,12.3,34,0.00,,BKN100,0.00,VWS V14.01,2013-05-02 15:09:00,
2013-05-02 10:15:00,47.1,20.2,30.20,NNE,28,8.3,8.3,34,0.00,,BKN100,0.00,VWS V14.01,2013-05-02 15:15:00,
2013-05-02 10:20:00,47.5,19.1,30.20,NNE,13,11.0,11.0,32,0.00,,BKN100,0.00,VWS V14.01,2013-05-02 15:20:00,
2013-05-02 10:26:00,47.5,19.8,30.20,NNE,31,10.1,10.1,33,0.00,,BKN100,0.00,VWS V14.01,2013-05-02 15:26:00,
2013-05-02 10:32:00,48.0,21.0,30.17,NNE,21,8.3,9.6,34,0.00,,BKN100,0.00,VWS V14.01,2013-05-02 15:32:00,
2013-05-02 10:38:00,48.0,19.6,30.17,North,6,9.6,12.8,32,0.00,,BKN100,0.00,VWS V14.01,2013-05-02 15:38:00,
2013-05-02 10:44:00,48.0,19.6,30.17,NNE,24,12.8,13.2,32,0.00,,BKN100,0.00,VWS V14.01,2013-05-02 15:44:00,
2013-05-02 10:49:00,48.0,20.3,30.17,North,353,10.1,12.8,33,0.00,,BKN100,0.00,VWS V14.01,2013-05-02 15:49:00,
2013-05-02 10:54:00,48.6,20.1,30.17,North,350,5.8,12.8,32,0.00,,BKN100,0.00,VWS V14.01,2013-05-02 15:54:00,
2013-05-02 10:59:00,48.7,20.2,30.17,North,3,8.3,11.0,32,0.00,,BKN100,0.00,VWS V14.01,2013-05-02 15:59:00,
2013-05-02 11:05:00,49.5,20.9,30.17,NNE,25,14.5,14.5,32,0.00,,BKN024,0.00,VWS V14.01,2013-05-02 16:05:00,
2013-05-02 11:11:00,50.2,20.7,30.17,North,7,11.0,11.0,31,0.00,,BKN024,0.00,VWS V14.01,2013-05-02 16:11:00,
2013-05-02 11:16:00,50.2,20.0,30.17,North,8,8.3,13.2,30,0.00,,BKN024,0.00,VWS V14.01,2013-05-02 16:16:00,
2013-05-02 11:22:00,49.5,20.1,30.17,North,5,11.0,13.2,31,0.00,,BKN024,0.00,VWS V14.01,2013-05-02 16:22:00,
2013-05-02 11:27:00,49.5,20.1,30.17,North,4,13.2,13.2,31,0.00,,BKN024,0.00,VWS V14.01,2013-05-02 16:27:00,
2013-05-02 11:33:00,49.8,20.4,30.17,North,357,13.2,13.6,31,0.00,,BKN024,0.00,VWS V14.01,2013-05-02 16:33:00,
2013-05-02 11:38:00,50.0,20.6,30.17,North,10,8.3,11.0,31,0.00,,BKN024,0.00,VWS V14.01,2013-05-02 16:38:00,
2013-05-02 11:43:00,50.2,20.7,30.17,North,2,10.5,10.5,31,0.00,,BKN024,0.00,VWS V14.01,2013-05-02 16:43:00,
2013-05-02 11:48:00,50.2,20.0,30.17,NNE,13,6.3,10.5,30,0.00,,BKN024,0.00,VWS V14.01,2013-05-02 16:48:00,
2013-05-02 11:54:00,50.7,22.0,30.17,NNE,21,10.5,10.5,32,0.00,,BKN024,0.00,VWS V14.01,2013-05-02 16:54:00,
2013-05-02 12:00:00,50.9,20.6,30.14,North,6,6.3,15.0,30,0.00,,BKN024,0.00,VWS V14.01,2013-05-02 17:00:00,
2013-05-02 12:05:00,51.3,21.7,30.14,NNE,18,5.8,5.8,31,0.00,,OVC100,0.00,VWS V14.01,2013-05-02 17:05:00,
2013-05-02 12:10:00,51.4,21.1,30.14,North,353,7.6,11.0,30,0.00,,OVC100,0.00,VWS V14.01,2013-05-02 17:10:00,
2013-05-02 12:16:00,51.6,21.2,30.14,North,10,8.3,8.3,30,0.00,,OVC100,0.00,VWS V14.01,2013-05-02 17:16:00,
2013-05-02 12:21:00,52.0,21.5,30.14,NNE,28,7.6,7.6,30,0.00,,OVC100,0.00,VWS V14.01,2013-05-02 17:21:00,
2013-05-02 12:26:00,52.0,20.7,30.14,NNE,12,7.6,14.5,29,0.00,,OVC100,0.00,VWS V14.01,2013-05-02 17:26:00,
2013-05-02 12:31:00,51.8,21.4,30.14,North,8,13.6,13.6,30,0.00,,OVC100,0.00,VWS V14.01,2013-05-02 17:31:00,
2013-05-02 12:37:00,51.8,21.4,30.14,North,11,8.3,11.0,30,0.00,,OVC100,0.00,VWS V14.01,2013-05-02 17:37:00,
2013-05-02 12:43:00,52.0,21.5,30.14,NNE,23,7.6,8.3,30,0.00,,OVC100,0.00,VWS V14.01,2013-05-02 17:43:00,
2013-05-02 12:48:00,52.2,21.7,30.14,North,357,4.0,8.1,30,0.00,,OVC100,0.00,VWS V14.01,2013-05-02 17:48:00,
2013-05-02 12:53:00,52.0,21.5,30.14,North,9,8.7,8.7,30,0.00,,OVC100,0.00,VWS V14.01,2013-05-02 17:53:00,
2013-05-02 12:58:00,51.6,21.2,30.14,NNE,28,5.4,7.6,30,0.00,,OVC100,0.00,VWS V14.01,2013-05-02 17:58:00,
2013-05-02 13:04:00,51.4,21.8,30.14,NNE,16,7.6,8.1,31,0.00,,SCT100,0.00,VWS V14.01,2013-05-02 18:04:00,
2013-05-02 13:10:00,51.6,22.0,30.14,NNE,30,6.3,9.2,31,0.00,,SCT100,0.00,VWS V14.01,2013-05-02 18:10:00,
2013-05-02 13:15:00,52.2,21.7,30.14,NNE,14,7.6,12.3,30,0.00,,SCT100,0.00,VWS V14.01,2013-05-02 18:15:00,
2013-05-02 13:21:00,51.8,20.6,30.14,NNE,14,8.3,11.0,29,0.00,,SCT100,0.00,VWS V14.01,2013-05-02 18:21:00,
2013-05-02 13:26:00,51.3,20.9,30.14,NNW,340,13.2,13.2,30,0.00,,SCT100,0.00,VWS V14.01,2013-05-02 18:26:00,
2013-05-02 13:31:00,50.7,20.4,30.14,North,11,10.5,13.2,30,0.00,,SCT100,0.00,VWS V14.01,2013-05-02 18:31:00,
2013-05-02 13:36:00,50.7,20.4,30.14,NNE,22,10.1,13.2,30,0.00,,SCT100,0.00,VWS V14.01,2013-05-02 18:36:00,
2013-05-02 13:41:00,50.4,20.1,30.14,NNE,18,0.0,8.1,30,0.00,,SCT100,0.00,VWS V14.01,2013-05-02 18:41:00,
2013-05-02 13:47:00,50.2,20.0,30.20,NNE,21,0.0,0.0,30,0.00,,SCT100,0.00,VWS V14.01,2013-05-02 18:47:00,
2013-05-02 13:53:00,50.2,21.5,30.20,NNE,19,8.3,8.3,32,0.00,,SCT100,0.00,VWS V14.01,2013-05-02 18:53:00,
2013-05-02 13:59:00,49.3,26.0,30.14,NNE,23,6.3,10.5,40,0.22,,SCT100,0.22,VWS V14.01,2013-05-02 18:59:00,
2013-05-02 14:04:00,48.2,28.4,30.14,North,9,10.5,10.5,46,0.43,,FEW110,0.43,VWS V14.01,2013-05-02 19:04:00,
2013-05-02 14:09:00,47.1,29.0,30.14,North,5,6.3,10.5,49,0.43,,FEW110,0.43,VWS V14.01,2013-05-02 19:09:00,
2013-05-02 14:14:00,46.8,31.5,30.14,North,11,10.1,10.1,55,0.43,,FEW110,0.43,VWS V14.01,2013-05-02 19:14:00,
2013-05-02 14:20:00,46.6,34.3,30.14,North,1,11.9,12.3,62,0.49,,FEW110,0.49,VWS V14.01,2013-05-02 19:20:00,
2013-05-02 14:25:00,46.4,35.7,30.14,NNE,20,3.6,7.2,66,0.49,,FEW110,0.49,VWS V14.01,2013-05-02 19:25:00,
2013-05-02 14:30:00,46.2,36.6,30.11,NNE,14,5.8,12.8,69,0.49,,FEW110,0.49,VWS V14.01,2013-05-02 19:30:00,
2013-05-02 14:35:00,46.4,37.2,30.11,North,0,8.1,11.0,70,0.49,,FEW110,0.49,VWS V14.01,2013-05-02 19:35:00,
2013-05-02 14:40:00,46.6,37.3,30.11,North,353,5.4,7.6,70,0.49,,FEW110,0.49,VWS V14.01,2013-05-02 19:40:00,
2013-05-02 14:45:00,46.8,37.5,30.14,North,11,10.1,12.3,70,0.54,,FEW110,0.54,VWS V14.01,2013-05-02 19:45:00,
2013-05-02 14:50:00,46.9,37.7,30.14,North,5,5.8,6.3,70,0.54,,FEW110,0.54,VWS V14.01,2013-05-02 19:50:00,
2013-05-02 14:56:00,47.3,37.7,30.14,NNW,346,7.6,11.0,69,0.49,,FEW110,0.54,VWS V14.01,2013-05-02 19:56:00,
2013-05-02 15:01:00,47.3,36.2,30.11,North,11,8.3,11.0,65,0.27,, +RA,0.54,VWS V14.01,2013-05-02 20:01:00,
2013-05-02 15:06:00,47.3,35.8,30.11,NNE,18,7.6,8.3,64,0.11,, +RA,0.54,VWS V14.01,2013-05-02 20:06:00,
2013-05-02 15:11:00,47.8,36.7,30.11,North,3,6.3,11.0,65,0.11,, +RA,0.54,VWS V14.01,2013-05-02 20:11:00,
2013-05-02 15:17:00,48.0,34.4,30.11,North,10,10.5,10.5,59,0.11,, +RA,0.54,VWS V14.01,2013-05-02 20:17:00,
2013-05-02 15:22:00,48.6,34.5,30.11,NNE,29,10.1,13.2,58,0.05,, +RA,0.54,VWS V14.01,2013-05-02 20:22:00,
2013-05-02 15:27:00,48.4,30.1,30.11,NNE,15,17.9,17.9,49,0.05,, +RA,0.54,VWS V14.01,2013-05-02 20:27:00,
2013-05-02 15:33:00,48.0,29.8,30.11,NNE,21,12.3,14.5,49,0.05,, +RA,0.54,VWS V14.01,2013-05-02 20:33:00,
2013-05-02 15:38:00,47.8,29.1,30.11,North,8,13.2,13.2,48,0.05,, +RA,0.54,VWS V14.01,2013-05-02 20:38:00,
2013-05-02 15:44:00,47.5,27.8,30.11,NNE,12,13.2,13.6,46,0.05,, +RA,0.54,VWS V14.01,2013-05-02 20:44:00,
2013-05-02 15:49:00,47.3,28.1,30.11,NNE,25,12.8,12.8,47,0.00,, +RA,0.54,VWS V14.01,2013-05-02 20:49:00,
2013-05-02 15:54:00,47.1,28.5,30.11,North,6,6.3,8.7,48,0.00,, +RA,0.54,VWS V14.01,2013-05-02 20:54:00,
2013-05-02 15:59:00,46.9,27.8,30.11,North,2,15.0,15.0,47,0.00,, +RA,0.54,VWS V14.01,2013-05-02 20:59:00,
2013-05-02 16:05:00,46.6,28.0,30.11,North,0,8.1,8.7,48,0.00,,-RA,0.54,VWS V14.01,2013-05-02 21:05:00,
2013-05-02 16:11:00,46.2,28.1,30.11,NNE,15,10.5,10.5,49,0.00,,-RA,0.54,VWS V14.01,2013-05-02 21:11:00,
2013-05-02 16:17:00,46.0,29.4,30.14,WNW,292,6.3,8.3,52,0.00,,-RA,0.54,VWS V14.01,2013-05-02 21:17:00,
2013-05-02 16:23:00,45.5,28.9,30.14,NW,321,5.4,11.0,52,0.00,,-RA,0.54,VWS V14.01,2013-05-02 21:23:00,
2013-05-02 16:28:00,45.0,28.4,30.14,NNE,12,7.6,13.2,52,0.00,,-RA,0.54,VWS V14.01,2013-05-02 21:28:00,
2013-05-02 16:34:00,44.6,30.3,30.14,NNE,15,10.5,13.2,57,0.00,,-RA,0.54,VWS V14.01,2013-05-02 21:34:00,
2013-05-02 16:40:00,44.1,30.7,30.14,North,353,8.1,15.4,59,0.05,,-RA,0.59,VWS V14.01,2013-05-02 21:40:00,
2013-05-02 16:45:00,43.7,31.1,30.11,North,357,8.1,8.3,61,0.05,,-RA,0.59,VWS V14.01,2013-05-02 21:45:00,
2013-05-02 16:51:00,43.5,32.2,30.11,North,357,11.0,12.3,64,0.05,,-RA,0.59,VWS V14.01,2013-05-02 21:51:00,
2013-05-02 16:56:00,43.5,32.9,30.11,NNE,14,13.2,17.4,66,0.05,,-RA,0.59,VWS V14.01,2013-05-02 21:56:00,
2013-05-02 17:01:00,43.3,33.1,30.11,NNE,18,11.0,14.1,67,0.05,,OVC085,0.59,VWS V14.01,2013-05-02 22:01:00,
2013-05-02 17:06:00,43.0,33.2,30.11,North,353,11.0,18.8,68,0.05,,OVC085,0.59,VWS V14.01,2013-05-02 22:06:00,
2013-05-02 17:11:00,42.8,33.0,30.11,North,7,8.7,13.2,68,0.05,,OVC085,0.59,VWS V14.01,2013-05-02 22:11:00,
2013-05-02 17:17:00,43.0,33.9,30.08,NNE,19,5.4,9.2,70,0.05,,OVC085,0.59,VWS V14.01,2013-05-02 22:17:00,
2013-05-02 17:23:00,42.6,33.5,30.08,North,357,10.1,14.5,70,0.05,,OVC085,0.59,VWS V14.01,2013-05-02 22:23:00,
2013-05-02 17:28:00,42.3,32.8,30.08,NNE,20,11.0,11.0,69,0.05,,OVC085,0.59,VWS V14.01,2013-05-02 22:28:00,
2013-05-02 17:34:00,42.1,33.0,30.11,North,357,10.5,10.5,70,0.05,,OVC085,0.59,VWS V14.01,2013-05-02 22:34:00,
2013-05-02 17:39:00,42.1,33.4,30.11,NNE,14,7.6,7.6,71,0.00,,OVC085,0.59,VWS V14.01,2013-05-02 22:39:00,
2013-05-02 17:44:00,42.1,33.4,30.11,North,9,11.4,15.0,71,0.00,,OVC085,0.59,VWS V14.01,2013-05-02 22:44:00,
2013-05-02 17:49:00,41.9,32.8,30.14,NNE,19,10.5,11.0,70,0.00,,OVC085,0.59,VWS V14.01,2013-05-02 22:49:00,
2013-05-02 17:54:00,41.9,32.1,30.14,NNE,22,13.2,13.2,68,0.00,,OVC085,0.59,VWS V14.01,2013-05-02 22:54:00,
2013-05-02 17:59:00,41.7,30.8,30.11,NNW,337,10.1,12.3,65,0.00,,OVC085,0.59,VWS V14.01,2013-05-02 22:59:00,
2013-05-02 18:05:00,41.7,30.8,30.11,North,357,10.1,13.2,65,0.00,,-RA,0.59,VWS V14.01,2013-05-02 23:05:00,
2013-05-02 18:10:00,41.5,30.3,30.11,North,353,10.5,10.5,64,0.00,,-RA,0.59,VWS V14.01,2013-05-02 23:10:00,
2013-05-02 18:16:00,41.5,29.5,30.14,North,5,8.3,9.2,62,0.00,,-RA,0.59,VWS V14.01,2013-05-02 23:16:00,
2013-05-02 18:21:00,41.5,29.9,30.14,NNW,338,15.4,15.4,63,0.00,,-RA,0.59,VWS V14.01,2013-05-02 23:21:00,
2013-05-02 18:26:00,41.2,28.4,30.14,North,7,11.0,12.8,60,0.00,,-RA,0.59,VWS V14.01,2013-05-02 23:26:00,
2013-05-02 18:31:00,41.2,28.0,30.14,North,3,8.3,13.6,59,0.00,,-RA,0.59,VWS V14.01,2013-05-02 23:31:00,
2013-05-02 18:37:00,41.0,27.4,30.14,North,357,15.0,18.8,58,0.00,,-RA,0.59,VWS V14.01,2013-05-02 23:37:00,
2013-05-02 18:43:00,40.8,26.4,30.14,North,353,10.5,13.6,56,0.00,,-RA,0.59,VWS V14.01,2013-05-02 23:43:00,
2013-05-02 18:48:00,40.8,26.4,30.11,North,5,12.8,12.8,56,0.00,,-RA,0.59,VWS V14.01,2013-05-02 23:48:00,
2013-05-02 18:54:00,40.6,25.8,30.11,North,7,15.4,15.4,55,0.00,,-RA,0.59,VWS V14.01,2013-05-02 23:54:00,
2013-05-02 18:59:00,40.5,25.6,30.11,North,6,11.0,13.2,55,0.00,,-RA,0.59,VWS V14.01,2013-05-02 23:59:00,
2013-05-02 19:05:00,40.5,24.7,30.11,North,353,11.0,11.0,53,0.00,,OVC015,0.59,VWS V14.01,2013-05-03 00:05:00,
2013-05-02 19:11:00,40.3,24.1,30.11,North,10,6.7,8.7,52,0.00,,OVC015,0.59,VWS V14.01,2013-05-03 00:11:00,
2013-05-02 19:16:00,40.3,24.1,30.14,NNE,19,10.1,12.3,52,0.00,,OVC015,0.59,VWS V14.01,2013-05-03 00:16:00,
2013-05-02 19:22:00,40.3,24.1,30.14,North,353,10.5,10.5,52,0.00,,OVC015,0.59,VWS V14.01,2013-05-03 00:22:00,
2013-05-02 19:27:00,40.1,24.4,30.14,NNE,21,11.0,15.0,53,0.00,,OVC015,0.59,VWS V14.01,2013-05-03 00:27:00,
2013-05-02 19:33:00,39.9,24.2,30.11,North,3,8.7,12.8,53,0.00,,OVC015,0.59,VWS V14.01,2013-05-03 00:33:00,
2013-05-02 19:38:00,39.9,25.1,30.11,North,0,8.1,9.6,55,0.00,,OVC015,0.59,VWS V14.01,2013-05-03 00:38:00,
2013-05-02 19:46:00,39.7,24.0,30.14,North,2,8.7,12.3,53,0.00,,OVC015,0.59,VWS V14.01,2013-05-03 00:46:00,
2013-05-02 19:51:00,39.6,24.3,30.14,NNE,13,7.2,12.3,54,0.00,,OVC015,0.59,VWS V14.01,2013-05-03 00:51:00,
2013-05-02 19:57:00,39.4,24.6,30.14,NNW,343,10.1,15.4,55,0.00,,OVC015,0.59,VWS V14.01,2013-05-03 00:57:00,
2013-05-02 20:02:00,39.2,24.8,30.14,NNE,21,6.3,6.7,56,0.00,, +RA,0.59,VWS V14.01,2013-05-03 01:02:00,
2013-05-02 20:08:00,39.2,25.3,30.14,NNE,25,5.8,6.3,57,0.00,, +RA,0.59,VWS V14.01,2013-05-03 01:08:00,
2013-05-02 20:13:00,39.2,25.3,30.14,North,357,5.8,5.8,57,0.00,, +RA,0.59,VWS V14.01,2013-05-03 01:13:00,
2013-05-02 20:19:00,39.2,25.7,30.17,North,3,6.7,6.7,58,0.00,, +RA,0.59,VWS V14.01,2013-05-03 01:19:00,
2013-05-02 20:25:00,39.2,25.7,30.17,NNE,15,5.8,8.1,58,0.00,, +RA,0.59,VWS V14.01,2013-05-03 01:25:00,
2013-05-02 20:31:00,39.2,26.1,30.17,NNE,13,8.1,8.1,59,0.00,, +RA,0.59,VWS V14.01,2013-05-03 01:31:00,
2013-05-02 20:36:00,39.4,27.9,30.17,North,353,8.1,9.6,63,0.00,, +RA,0.59,VWS V14.01,2013-05-03 01:36:00,
2013-05-02 20:41:00,39.2,28.1,30.17,NNE,30,5.8,12.8,64,0.05,, +RA,0.65,VWS V14.01,2013-05-03 01:41:00,
2013-05-02 20:46:00,39.0,29.4,30.14,NNE,18,5.4,8.7,68,0.05,, +RA,0.65,VWS V14.01,2013-05-03 01:46:00,
2013-05-02 20:51:00,38.8,30.3,30.14,NNE,12,7.2,9.2,71,0.05,, +RA,0.65,VWS V14.01,2013-05-03 01:51:00,
2013-05-02 20:57:00,38.7,30.4,30.14,NNE,21,6.3,10.5,72,0.05,, +RA,0.65,VWS V14.01,2013-05-03 01:57:00,
2013-05-02 21:02:00,38.7,30.8,30.14,North,6,5.8,11.0,73,0.11,,-RA,0.70,VWS V14.01,2013-05-03 02:02:00,
2013-05-02 21:07:00,38.7,31.1,30.14,NNE,15,6.3,9.2,74,0.11,,-RA,0.70,VWS V14.01,2013-05-03 02:07:00,
2013-05-02 21:12:00,38.7,31.4,30.14,North,353,5.8,8.7,75,0.11,,-RA,0.70,VWS V14.01,2013-05-03 02:12:00,
2013-05-02 21:18:00,38.5,31.6,30.11,NNE,22,11.0,11.0,76,0.11,,-RA,0.70,VWS V14.01,2013-05-03 02:18:00,
2013-05-02 21:24:00,38.1,30.9,30.11,NNE,19,12.8,16.8,75,0.11,,-RA,0.70,VWS V14.01,2013-05-03 02:24:00,
2013-05-02 21:29:00,37.9,30.4,30.14,North,4,8.3,13.2,74,0.11,,-RA,0.70,VWS V14.01,2013-05-03 02:29:00,
2013-05-02 21:35:00,37.8,30.2,30.14,NNE,12,5.4,8.1,74,0.11,,-RA,0.70,VWS V14.01,2013-05-03 02:35:00,
2013-05-02 21:40:00,37.8,30.6,30.14,North,2,8.3,12.3,75,0.05,,-RA,0.70,VWS V14.01,2013-05-03 02:40:00,
2013-05-02 21:46:00,37.6,30.1,30.14,North,6,5.8,12.3,74,0.05,,-RA,0.70,VWS V14.01,2013-05-03 02:46:00,
2013-05-02 21:51:00,37.4,29.9,30.14,North,11,15.0,15.0,74,0.05,,-RA,0.70,VWS V14.01,2013-05-03 02:51:00,
2013-05-02 21:56:00,37.2,29.7,30.14,NNE,18,5.8,11.0,74,0.05,,-RA,0.70,VWS V14.01,2013-05-03 02:56:00,
2013-05-02 22:01:00,37.0,29.5,30.14,North,5,12.8,12.8,74,0.05,,-RA,0.70,VWS V14.01,2013-05-03 03:01:00,
2013-05-02 22:07:00,36.9,29.0,30.14,North,0,8.1,10.5,73,0.00,,-RA,0.70,VWS V14.01,2013-05-03 03:07:00,
2013-05-02 22:12:00,36.7,28.9,30.14,North,5,11.0,15.0,73,0.00,,-RA,0.70,VWS V14.01,2013-05-03 03:12:00,
2013-05-02 22:17:00,36.9,29.4,30.14,North,11,7.6,8.7,74,0.00,,-RA,0.70,VWS V14.01,2013-05-03 03:17:00,
2013-05-02 22:22:00,36.9,29.7,30.14,North,10,12.8,12.8,75,0.00,,-RA,0.70,VWS V14.01,2013-05-03 03:22:00,
2013-05-02 22:28:00,36.7,29.2,30.14,North,7,8.7,15.0,74,0.00,,-RA,0.70,VWS V14.01,2013-05-03 03:28:00,
2013-05-02 22:34:00,36.5,28.4,30.11,NNE,20,10.1,20.1,72,0.00,,-RA,0.70,VWS V14.01,2013-05-03 03:34:00,
2013-05-02 22:39:00,36.5,28.4,30.11,NNE,16,13.2,13.2,72,0.00,,-RA,0.70,VWS V14.01,2013-05-03 03:39:00,
2013-05-02 22:45:00,36.3,28.2,30.08,NNE,26,12.8,12.8,72,0.00,,-RA,0.70,VWS V14.01,2013-05-03 03:45:00,
2013-05-02 22:51:00,36.3,27.8,30.08,North,357,10.1,15.4,71,0.00,,-RA,0.70,VWS V14.01,2013-05-03 03:51:00,
2013-05-02 22:56:00,36.3,27.5,30.08,North,8,13.6,13.6,70,0.00,,-RA,0.70,VWS V14.01,2013-05-03 03:56:00,
2013-05-02 23:01:00,36.3,27.8,30.11,North,7,10.1,12.3,71,0.00,,OVC011,0.70,VWS V14.01,2013-05-03 04:01:00,
2013-05-02 23:02:00,36.3,27.8,30.11,NNE,26,8.1,10.5,71,0.00,,OVC011,0.70,VWS V14.01,2013-05-03 04:02:00,
2013-05-02 23:07:00,36.3,27.8,30.11,North,1,11.0,17.4,71,0.00,,OVC011,0.70,VWS V14.01,2013-05-03 04:07:00,
2013-05-02 23:09:00,36.1,27.3,30.11,North,357,10.5,17.9,70,0.00,,OVC011,0.70,VWS V14.01,2013-05-03 04:09:00,
2013-05-02 23:11:00,36.1,27.0,30.11,NE,37,10.1,15.4,69,0.00,,OVC011,0.70,VWS V14.01,2013-05-03 04:11:00,
2013-05-02 23:14:00,36.1,26.3,30.11,NNE,19,12.8,12.8,67,0.00,,OVC011,0.70,VWS V14.01,2013-05-03 04:14:00,
2013-05-02 23:19:00,36.0,25.7,30.08,NNE,20,10.5,15.0,66,0.00,,OVC011,0.70,VWS V14.01,2013-05-03 04:19:00,
2013-05-02 23:24:00,36.0,25.7,30.08,NNE,29,12.8,14.5,66,0.00,,OVC011,0.70,VWS V14.01,2013-05-03 04:24:00,
2013-05-02 23:30:00,35.8,26.3,30.11,NNE,33,8.1,10.5,68,0.00,,OVC011,0.70,VWS V14.01,2013-05-03 04:30:00,
2013-05-02 23:35:00,35.8,26.6,30.11,North,9,14.5,14.5,69,0.00,,OVC011,0.70,VWS V14.01,2013-05-03 04:35:00,
2013-05-02 23:40:00,35.8,26.6,30.11,North,11,8.3,12.3,69,0.00,,OVC011,0.70,VWS V14.01,2013-05-03 04:40:00,
2013-05-02 23:45:00,35.6,26.5,30.08,North,357,8.1,19.7,69,0.00,,OVC011,0.70,VWS V14.01,2013-05-03 04:45:00,
2013-05-02 23:50:00,35.6,26.5,30.08,North,6,11.0,11.0,69,0.00,,OVC011,0.70,VWS V14.01,2013-05-03 04:50:00,
2013-05-02 23:56:00,35.6,26.5,30.08,NNE,17,15.4,15.4,69,0.00,,OVC011,0.70,VWS V14.01,2013-05-03 04:56:00,